Wind_Speed
39 40 40 40 40 40 40 41 41 41 41 41 40 40 40 40 39 39 38 38 37 36 35 35 34 33 32 32 32 32 31 31 31 30 30 30 30 30 30 30 30 30 30
42 43 43 43 43 43 43 43 43 43 43 44 44 43 43 42 42 42 41 41 41 40 39 38 37 36 35 35 35 34 34 34 33 34 33 33 33 32 32 32 32 32 32
43 43 44 44 44 44 44 43 44 44 44 45 45 46 46 45 45 44 44 44 43 42 42 41 40 40 39 38 37 37 36 36 35 35 35 35 35 34 34 34 33 33 33
42 42 43 43 44 44 44 44 44 45 45 46 46 47 47 47 47 47 46 46 45 44 44 43 42 42 41 41 40 40 39 38 38 38 37 37 37 36 36 36 35 35 35
42 43 43 43 43 43 44 44 45 45 45 45 45 45 46 47 48 48 48 48 47 47 46 45 45 45 44 43 43 42 42 41 40 39 39 38 38 37 37 37 37 37 37
43 43 42 42 42 43 43 44 45 46 46 46 45 45 46 47 49 50 50 49 49 48 48 48 47 47 47 46 46 45 44 44 43 41 41 41 40 39 38 38 38 38 38
42 42 42 43 43 44 44 45 45 46 46 47 47 47 47 48 48 50 51 51 50 50 49 49 49 49 48 47 47 46 45 45 45 44 43 43 42 42 41 41 40 40 40
41 42 43 44 45 45 45 46 47 47 47 47 47 48 48 49 49 51 52 53 52 52 51 50 50 51 51 50 49 48 47 47 47 46 45 45 45 45 44 43 43 42 42
39 40 42 44 45 46 46 46 47 48 49 49 49 50 50 50 50 51 52 53 54 53 53 51 50 50 51 52 51 50 49 48 49 49 47 47 46 46 46 45 45 44 43
40 40 41 43 45 46 47 48 48 48 48 49 50 50 50 50 50 50 51 52 54 54 54 54 53 52 52 52 52 51 50 50 49 49 49 48 47 47 47 47 47 45 45
39 40 41 43 44 45 46 47 47 48 48 48 49 49 49 50 50 50 50 52 53 54 54 54 54 53 52 52 52 52 51 51 50 50 49 48 48 48 47 48 48 48 48
38 39 41 41 42 43 44 45 46 46 47 47 47 48 48 49 50 50 50 51 52 53 55 55 54 54 54 52 52 52 51 50 50 50 50 50 49 49 48 49 49 50 49
38 39 40 40 40 41 43 45 45 45 46 47 47 47 48 48 49 50 50 50 51 51 52 53 54 54 53 52 52 52 52 51 50 51 50 51 51 52 51 50 51 51 51
38 39 39 39 39 40 42 43 44 44 45 46 46 47 48 48 48 49 49 49 50 49 50 51 51 52 51 51 51 51 51 51 52 52 53 53 52 53 53 52 52 52 52
36 37 37 38 39 39 40 41 42 43 44 45 45 45 46 47 47 48 48 49 49 48 47 48 48 49 49 51 50 51 51 51 52 54 54 53 53 52 51 52 53 53 52
34 34 35 36 37 37 38 38 39 40 42 43 43 44 44 45 46 46 46 47 47 47 47 47 49 49 50 51 52 52 52 53 53 54 55 54 53 53 53 54 54 53 52
33 33 33 34 35 35 36 37 37 39 40 41 42 43 43 43 44 45 45 46 47 47 48 48 49 50 51 51 52 52 53 53 54 53 54 55 54 54 54 54 53 52 52
33 33 33 33 33 34 36 36 37 37 38 38 39 40 41 42 43 43 44 45 47 48 49 49 50 50 51 51 52 52 52 53 54 53 53 53 53 53 53 53 53 52 51
31 32 32 32 33 33 34 34 35 35 36 36 37 38 39 40 41 42 43 44 46 48 49 49 49 50 50 51 52 52 53 54 53 52 52 52 51 52 53 52 52 52 51
29 30 31 31 32 31 32 32 33 33 34 35 35 36 38 39 40 41 42 44 45 47 49 49 50 51 51 51 53 53 54 53 52 51 51 50 50 50 50 51 52 51 50
29 30 30 30 31 31 31 31 31 32 33 33 34 35 36 38 40 41 42 43 44 46 48 49 50 50 51 52 53 53 53 52 51 49 49 49 49 49 48 48 50 51 50
29 29 29 30 30 30 31 31 32 32 33 33 34 35 37 38 40 41 42 43 44 45 46 47 48 49 49 49 50 51 51 50 49 48 48 47 47 47 47 47 48 48 49
29 29 29 30 30 31 31 31 32 33 34 34 34 35 37 37 38 39 40 41 42 44 45 46 46 47 48 48 49 48 48 48 48 48 47 46 46 46 46 46 46 47 47
29 30 30 31 31 31 31 31 32 33 34 34 35 36 36 36 36 37 38 39 40 42 43 45 45 45 46 47 47 47 47 46 46 47 47 46 46 46 46 46 46 46 45
30 30 31 32 32 32 32 32 33 33 34 35 35 36 36 36 36 36 37 38 39 41 42 43 43 43 44 44 45 45 46 46 47 47 48 47 46 46 46 45 45 45 43
31 32 32 33 33 33 33 34 34 34 34 35 36 37 36 35 35 36 37 38 39 40 41 41 42 42 43 43 43 44 44 45 46 46 46 47 46 46 46 45 44 43 42
Wind_Direction
266 266 267 267 266 266 266 265 265 265 265 265 265 265 264 264 264 265 266 267 267 268 267 268 269 269 269 270 271 272 273 274 275 276 277 279 280 281 282 282 283 283 283
267 267 267 267 266 267 266 266 266 266 265 265 264 264 263 264 264 264 265 265 265 266 266 267 268 268 269 269 270 271 272 274 275 275 276 278 279 280 281 281 282 282 282
268 268 267 267 266 266 266 266 266 266 266 265 264 263 263 263 263 263 264 264 264 265 266 267 267 267 268 268 269 270 271 273 274 275 275 276 277 278 279 279 280 281 281
270 270 268 267 267 266 266 266 266 266 266 266 265 263 262 262 262 262 262 263 264 264 265 266 266 266 266 267 268 269 270 271 272 273 274 275 276 277 279 278 279 280 280
270 270 269 268 267 266 265 265 265 265 266 266 265 265 264 263 262 262 262 262 263 263 264 265 265 265 266 267 267 267 268 269 271 272 273 274 275 277 278 278 278 278 279
270 269 269 268 268 267 266 265 265 264 265 266 266 266 266 265 263 262 262 262 262 263 263 264 265 266 266 266 267 267 268 269 269 270 271 272 273 274 276 277 278 278 278
269 268 268 268 267 268 268 267 267 266 265 266 266 266 266 265 264 263 261 262 261 261 263 263 264 265 266 266 266 267 267 267 268 269 270 271 272 273 274 275 276 277 278
270 268 268 267 267 268 268 268 268 266 266 266 266 266 266 265 265 265 263 262 262 262 263 263 264 265 265 265 266 266 267 267 267 269 269 270 271 271 273 274 275 275 277
272 271 269 268 267 268 268 269 268 268 266 266 266 266 266 266 266 266 265 263 262 262 262 263 264 264 265 265 265 266 267 267 268 268 268 269 270 271 272 274 275 276 277
273 272 271 270 269 269 268 268 268 268 267 267 267 267 267 267 266 265 265 264 263 263 262 262 262 263 263 264 264 265 266 266 267 267 268 269 270 272 272 273 273 274 276
275 274 274 273 271 270 269 268 268 268 268 268 267 267 268 267 267 267 266 265 264 263 263 262 262 262 262 263 263 264 265 266 266 267 267 268 269 271 272 272 273 274 275
277 276 276 276 275 273 270 269 268 268 267 268 267 267 269 269 268 268 268 265 264 263 263 263 262 261 262 263 263 263 264 266 267 267 267 268 269 270 271 272 272 273 274
277 277 277 276 275 275 273 271 269 269 268 268 268 267 269 270 269 268 267 264 263 263 262 262 262 263 263 264 264 264 264 265 267 268 268 269 270 270 271 272 272 273 273
278 278 278 276 275 275 274 272 269 269 270 269 269 269 269 269 269 269 268 265 264 263 262 262 262 264 264 264 265 265 265 265 266 267 268 269 271 271 271 271 272 272 273
280 279 278 277 276 276 275 274 272 271 271 271 270 269 270 269 269 269 267 264 262 262 261 263 262 263 264 264 265 265 265 267 267 267 267 269 269 270 270 271 271 271 272
282 281 281 279 278 278 278 277 275 274 273 272 271 270 269 270 270 270 267 264 262 262 262 263 264 264 265 266 265 265 266 267 267 268 268 268 269 269 270 270 270 271 271
282 282 282 281 281 281 280 279 278 276 275 274 272 271 270 271 271 270 267 264 263 263 264 265 265 265 266 266 267 266 266 268 268 269 268 267 267 268 270 270 270 270 270
283 282 283 283 283 282 282 281 280 279 277 276 275 272 271 271 272 270 269 266 265 265 265 267 267 267 267 267 267 266 267 268 268 269 269 268 267 268 268 269 270 270 270
286 284 284 284 285 284 284 283 282 281 280 279 278 275 273 272 272 271 270 269 268 266 266 268 268 269 270 268 267 268 268 269 269 270 270 269 268 269 269 269 269 270 270
289 287 286 287 287 286 286 286 285 284 283 282 281 278 275 275 274 273 273 272 270 269 267 268 269 270 270 269 269 269 269 269 270 271 270 269 268 269 270 270 269 269 270
290 289 288 289 289 288 287 287 286 285 284 284 282 279 279 279 278 277 275 274 272 271 270 269 270 270 271 271 270 270 270 270 270 270 270 269 268 268 269 271 270 269 269
291 291 289 289 289 289 289 288 287 287 286 286 285 283 282 281 280 278 277 276 275 273 273 271 271 271 271 271 270 270 270 270 270 270 270 269 269 268 269 270 271 270 269
291 292 291 291 291 291 290 289 289 289 289 288 287 286 286 285 283 281 279 278 278 277 276 275 274 273 272 271 270 270 270 271 271 271 269 269 269 268 269 269 270 270 269
291 293 293 292 292 293 293 292 291 290 290 289 288 288 289 288 286 284 282 281 280 281 281 278 277 276 274 273 272 271 270 270 270 270 269 268 268 268 269 269 270 271 271
291 292 293 293 293 293 294 294 294 291 290 289 289 289 290 289 288 287 285 283 282 282 283 282 279 277 276 274 274 272 270 270 270 270 269 269 268 268 268 269 270 270 270
291 292 293 293 293 293 293 294 295 293 291 290 290 291 291 290 290 289 288 287 286 286 285 283 280 278 276 276 275 274 272 271 271 271 270 270 269 268 268 267 268 268 268
Height
5811 5811 5812 5812 5813 5813 5814 5815 5815 5816 5816 5817 5817 5818 5819 5819 5819 5820 5820 5821 5821 5821 5821 5822 5822 5822 5822 5822 5821 5821 5821 5821 5820 5819 5818 5818 5817 5816 5815 5814 5813 5812 5811
5802 5802 5802 5803 5803 5804 5804 5805 5805 5806 5806 5807 5808 5809 5810 5810 5811 5811 5812 5812 5813 5813 5814 5814 5814 5814 5814 5814 5814 5814 5814 5814 5813 5812 5812 5811 5810 5809 5809 5808 5806 5805 5804
5792 5792 5792 5793 5793 5794 5794 5795 5795 5796 5796 5797 5798 5798 5799 5800 5801 5802 5802 5803 5803 5804 5805 5805 5806 5806 5806 5806 5806 5806 5806 5806 5805 5805 5804 5804 5803 5802 5801 5800 5799 5798 5797
5782 5782 5782 5782 5782 5783 5784 5785 5785 5786 5786 5786 5787 5787 5788 5790 5791 5792 5792 5793 5794 5795 5795 5796 5797 5797 5797 5798 5798 5798 5798 5798 5797 5797 5796 5795 5795 5794 5793 5792 5791 5790 5789
5772 5771 5771 5772 5772 5772 5773 5774 5775 5775 5775 5775 5776 5777 5778 5779 5780 5781 5782 5783 5784 5785 5785 5786 5787 5787 5788 5788 5788 5788 5789 5789 5789 5788 5787 5787 5786 5786 5785 5784 5783 5782 5781
5761 5761 5761 5761 5761 5762 5763 5763 5763 5764 5765 5765 5765 5766 5767 5768 5768 5769 5771 5772 5773 5774 5775 5776 5776 5777 5777 5778 5778 5778 5779 5779 5779 5779 5778 5778 5777 5777 5776 5775 5774 5773 5772
5751 5750 5751 5751 5751 5751 5752 5752 5752 5753 5753 5754 5754 5755 5756 5756 5757 5757 5758 5760 5762 5763 5763 5765 5766 5766 5767 5767 5768 5768 5768 5768 5768 5769 5768 5768 5768 5767 5767 5766 5765 5764 5763
5741 5740 5740 5740 5740 5740 5740 5741 5741 5741 5742 5742 5742 5743 5744 5745 5745 5746 5746 5748 5749 5750 5752 5753 5753 5754 5755 5756 5756 5757 5757 5757 5757 5758 5758 5757 5757 5757 5756 5755 5755 5754 5753
5730 5729 5729 5729 5729 5728 5729 5729 5729 5729 5730 5730 5730 5730 5731 5733 5734 5734 5734 5735 5736 5738 5739 5740 5741 5742 5742 5744 5745 5745 5746 5745 5745 5746 5746 5746 5746 5746 5745 5745 5744 5743 5742
5720 5719 5718 5717 5717 5717 5717 5717 5717 5717 5717 5718 5718 5718 5718 5719 5720 5722 5722 5722 5723 5724 5726 5727 5728 5729 5729 5730 5732 5733 5733 5733 5733 5733 5734 5734 5734 5734 5733 5733 5732 5731 5730
5710 5709 5707 5706 5705 5705 5704 5704 5704 5705 5705 5705 5705 5705 5705 5706 5706 5708 5710 5710 5710 5712 5713 5714 5715 5716 5716 5717 5718 5719 5720 5720 5721 5721 5721 5721 5721 5721 5721 5720 5720 5719 5718
5700 5698 5696 5695 5694 5693 5692 5692 5692 5693 5693 5693 5693 5693 5694 5694 5694 5695 5696 5698 5698 5699 5699 5700 5701 5702 5703 5704 5705 5705 5707 5707 5708 5708 5708 5708 5708 5708 5708 5708 5707 5706 5705
5691 5688 5686 5685 5683 5682 5681 5680 5681 5681 5681 5681 5681 5681 5681 5682 5682 5683 5683 5684 5685 5686 5686 5687 5688 5689 5690 5691 5692 5692 5693 5694 5694 5694 5695 5695 5695 5695 5694 5694 5693 5692 5692
5681 5679 5677 5675 5673 5672 5670 5669 5669 5669 5669 5668 5669 5669 5669 5670 5670 5670 5670 5671 5672 5673 5674 5674 5675 5676 5677 5678 5679 5679 5680 5680 5680 5681 5681 5681 5681 5680 5680 5680 5679 5678 5677
5672 5669 5667 5665 5664 5662 5660 5658 5658 5657 5657 5656 5656 5656 5656 5657 5657 5656 5656 5657 5659 5660 5662 5662 5663 5664 5664 5665 5665 5666 5666 5666 5666 5666 5666 5666 5666 5666 5665 5664 5664 5663 5662
5663 5660 5658 5656 5654 5652 5650 5648 5647 5646 5645 5644 5644 5644 5644 5644 5644 5643 5643 5644 5645 5647 5649 5650 5650 5650 5650 5650 5651 5651 5651 5651 5651 5651 5651 5651 5651 5651 5650 5649 5648 5647 5647
5654 5652 5649 5647 5645 5643 5641 5639 5637 5635 5634 5633 5632 5632 5632 5632 5631 5631 5631 5631 5632 5634 5635 5637 5636 5636 5636 5636 5636 5636 5636 5636 5636 5635 5635 5635 5635 5635 5634 5633 5632 5632 5631
5646 5643 5641 5638 5636 5634 5631 5629 5627 5625 5624 5622 5621 5621 5620 5620 5619 5619 5618 5619 5620 5621 5622 5623 5623 5622 5622 5621 5621 5620 5620 5620 5620 5620 5619 5619 5619 5618 5618 5617 5617 5616 5616
5638 5635 5633 5630 5627 5625 5622 5620 5617 5615 5614 5612 5611 5610 5609 5608 5607 5607 5606 5606 5607 5607 5608 5609 5609 5608 5607 5606 5605 5605 5605 5604 5604 5604 5603 5603 5603 5602 5602 5601 5601 5601 5601
5630 5627 5625 5622 5619 5616 5614 5611 5609 5606 5604 5603 5601 5600 5599 5598 5596 5595 5595 5594 5593 5593 5593 5594 5594 5593 5592 5591 5590 5590 5590 5589 5589 5589 5588 5587 5587 5587 5587 5586 5586 5586 5585
5622 5619 5617 5614 5611 5608 5606 5603 5601 5599 5596 5594 5592 5591 5589 5587 5585 5583 5582 5581 5580 5580 5579 5579 5579 5578 5577 5576 5575 5574 5574 5574 5574 5573 5573 5573 5573 5573 5571 5571 5570 5570 5570
5615 5612 5609 5606 5603 5600 5598 5595 5593 5591 5588 5586 5584 5581 5579 5576 5573 5571 5570 5568 5567 5566 5564 5564 5563 5563 5562 5561 5559 5558 5558 5559 5560 5561 5558 5558 5557 5557 5557 5557 5556 5555 5555
5607 5604 5601 5598 5595 5593 5589 5587 5584 5582 5579 5577 5574 5571 5569 5565 5562 5559 5557 5555 5553 5551 5550 5549 5548 5547 5547 5546 5545 5545 5544 5543 5544 5544 5543 5544 5543 5543 5543 5542 5542 5541 5541
5600 5597 5594 5591 5588 5584 5581 5578 5575 5572 5570 5567 5564 5561 5558 5554 5551 5548 5545 5543 5540 5539 5537 5535 5534 5533 5531 5530 5530 5530 5529 5529 5529 5528 5528 5529 5529 5530 5529 5529 5528 5527 5527
5592 5589 5586 5582 5579 5576 5573 5569 5566 5563 5560 5557 5554 5550 5547 5543 5540 5536 5534 5531 5529 5526 5523 5521 5519 5518 5517 5516 5515 5514 5514 5515 5515 5515 5514 5514 5515 5516 5516 5515 5515 5514 5513
5583 5580 5577 5574 5570 5567 5564 5560 5557 5553 5550 5547 5544 5540 5536 5532 5529 5525 5522 5520 5517 5515 5512 5509 5507 5505 5504 5502 5501 5500 5500 5500 5500 5501 5500 5500 5500 5500 5502 5503 5501 5500 5500